Tapachula Airport, Mexico

9:10 PM CDT on April 26, 2018 (GMT -0500)
Tapachula International

Weather History for MMTP - November, 2012

Change the Weather History Date:

Saturday, November 10, 2012

  Actual Average Record
Temperature  
Mean Temperature 82 °F -  
Max Temperature 89 °F 86 °F 91 °F (1999)
Min Temperature 75 °F 73 °F 50 °F (2007)
Cooling Degree Days 17    
Growing Degree Days 32 (Base 50)    
Moisture  
Dew Point 75 °F    
Average Humidity 78    
Maximum Humidity 94    
Minimum Humidity 66    
Precipitation  
Precipitation 0.00 in - - ()
Sea Level Pressure  
Sea Level Pressure 29.86 in    
Wind  
Wind Speed 2 mph ()    
Max Wind Speed 13 mph    
Max Gust Speed -    
Visibility 10.0 miles    
Events      
Averages and records for this station are not official NWS values.
T = Trace of Precipitation, MM = Missing Value Source: Averaged Metar Reports

Daily Weather History Graph

Daily Weather History Graph

Search for Another Location

Airport or City:

Astronomy

Nov. 10, 2012 Rise Set
Actual Time 6:08 AM CST 5:37 PM CST
Civil Twilight 5:46 AM CST 6:00 PM CST
Nautical Twilight 5:20 AM CST 6:25 PM CST
Astronomical Twilight 4:54 AM CST 6:51 PM CST
Moon 2:45 AM CST (11/10) 2:58 PM CST (11/10)
Length of Visible Light 12h 13m
Length of Day
11h 29m
Waning Crescent, 14% of the Moon is Illuminated
Nov 10
Waning Crescent
Nov 13
New
Nov 20
First Quarter
Nov 28
Full
Dec 6
Last Quarter

Hourly Weather History & Observations

Time (CST) Temp. Heat Index Dew Point Humidity Pressure Visibility Wind Dir Wind Speed Gust Speed Precip Events Conditions
12:42 AM 77.0 °F - 75.2 °F 94% 29.91 in 10.0 mi Calm Calm - N/A   Partly Cloudy
1:40 AM 82.4 °F 89.5 °F 75.2 °F 79% 29.91 in 10.0 mi Calm Calm - N/A   Partly Cloudy
2:45 AM 82.4 °F 89.5 °F 75.2 °F 79% 29.86 in 10.0 mi Calm Calm - N/A   Partly Cloudy
3:40 AM 77.0 °F - 71.6 °F 83% 29.86 in 10.0 mi Calm Calm - N/A   Partly Cloudy
4:40 AM 77.0 °F - 71.6 °F 83% 29.86 in 10.0 mi Calm Calm - N/A   Partly Cloudy
5:47 AM 77.0 °F - 71.6 °F 83% 29.78 in 10.0 mi Calm Calm - N/A   Partly Cloudy
6:40 AM 75.2 °F - 71.6 °F 89% 29.90 in 10.0 mi Calm Calm - N/A   Scattered Clouds
7:40 AM 77.0 °F - 73.4 °F 89% 29.92 in 10.0 mi Calm Calm - N/A   Scattered Clouds
8:40 AM 82.4 °F 89.5 °F 75.2 °F 79% 29.96 in 10.0 mi Calm Calm - N/A   Scattered Clouds
9:40 AM 82.4 °F 89.5 °F 75.2 °F 79% 29.95 in 10.0 mi Calm Calm - N/A   Scattered Clouds
10:40 AM 89.6 °F 102.2 °F 77.0 °F 66% 29.93 in 10.0 mi Calm Calm - N/A   Scattered Clouds
11:40 AM 87.8 °F 97.6 °F 75.2 °F 66% 29.78 in 10.0 mi WSW 8.1 mph - N/A   Scattered Clouds
12:40 PM 87.8 °F 97.6 °F 75.2 °F 66% 29.91 in 10.0 mi WSW 8.1 mph - N/A   Scattered Clouds
1:40 PM 87.8 °F 97.6 °F 75.2 °F 66% 29.84 in 10.0 mi WSW 10.4 mph - N/A   Scattered Clouds
2:40 PM 86.0 °F 93.4 °F 73.4 °F 66% 29.80 in 10.0 mi WSW 12.7 mph - N/A   Clear
3:40 PM 87.8 °F 97.6 °F 75.2 °F 66% 29.82 in 10.0 mi West 11.5 mph - N/A   Clear
4:40 PM 86.0 °F 96.9 °F 77.0 °F 74% 29.84 in 10.0 mi West 11.5 mph - N/A   Clear
5:40 PM 84.2 °F 94.1 °F 77.0 °F 79% 29.78 in 10.0 mi Calm Calm - N/A   Partly Cloudy
6:40 PM 82.4 °F 89.5 °F 75.2 °F 79% 29.82 in 10.0 mi Calm Calm - N/A   Partly Cloudy
7:40 PM 82.4 °F 89.5 °F 75.2 °F 79% 29.82 in 10.0 mi Calm Calm - N/A   Partly Cloudy
8:40 PM 82.4 °F 89.5 °F 75.2 °F 79% 29.80 in 10.0 mi Calm Calm - N/A   Partly Cloudy
9:40 PM 82.4 °F 89.5 °F 75.2 °F 79% 29.82 in 10.0 mi Calm Calm - N/A   Partly Cloudy
10:40 PM 82.4 °F 89.5 °F 75.2 °F 79% 29.89 in 10.0 mi Calm Calm - N/A   Partly Cloudy
11:40 PM 78.8 °F - 75.2 °F 89% 29.85 in 10.0 mi Calm Calm - N/A   Clear